Flag for Belgium Weather past 2 weeks in Leuven, Belgium

Now
70 °F

Passing clouds.


Feels Like: 70 °F
Forecast: 56 / 66 °F
Wind: 6 mph from Northeast

Location: Brussels National Airport

Current Time: Aug 31, 2015 at 3:42:13 AM

Latest Report: Aug 31, 2015 at 2:50 AM


Visibility: 5 mi

Pressure: 29.92 "Hg

Humidity: 94%

Dew point: 68 °F

Location of LeuvenLocation

Historic Weather in Leuven — Graph

°F

Leuven temperature yesterday

Maximum temperature yesterday: 86 °F (at 2:50 PM)
Minimum temperature yesterday: 61 °F (at 7:20 AM)
Average temperature yesterday: 73 °F

Past Weeks' High & Low Weather Summary

 TemperatureHumidityPressure
High86 °F (Aug 30, 2:50 PM)100% (Aug 17, 8:50 PM)30.24 "Hg (Aug 17, 8:50 PM)
Low50 °F (Aug 29, 7:20 AM)32% (Aug 22, 3:50 PM)29.47 "Hg (Aug 24, 2:20 PM)
Average65 °F72%29.97 "Hg
* Reported Aug 16 2:20 AM — Aug 31 2:20 AM, Leuven, Weather by CustomWeather, © 2015

Note: Actual official high and low records may vary slightly from our data, if they occured in-between our weather recording intervals... More about our weather records

Advertising

Leuven weather history for previous 24 hours

 ConditionsComfort  
Time TempWeatherWind HumidityBarometerVisibility
2:20 AM
Mon, Aug 31
72 °FPassing clouds.6 mph94%29.95 "Hg4 mi
1:50 AM72 °FPassing clouds.7 mph94%29.95 "Hg4 mi
1:20 AM72 °FFog.8 mph94%29.95 "Hg2 mi
12:50 AM72 °FFog.8 mph94%29.95 "Hg2 mi
12:20 AM73 °FFog.6 mph89%29.95 "Hg3 mi
11:50 PM
Sun, Aug 30
73 °FClear.2 mph94%29.95 "Hg10 mi
11:20 PM75 °FClear.No wind89%29.95 "Hg10 mi
10:50 PM75 °FClear.2 mph89%29.95 "Hg10 mi
10:20 PM75 °FClear.1 mph94%29.95 "Hg10 mi
9:50 PM77 °FClear.5 mph83%29.95 "Hg10 mi
9:20 PM79 °FSunny.5 mph79%29.95 "Hg10 mi
8:50 PM79 °FSunny.3 mph79%29.95 "Hg10 mi
8:20 PM79 °FSunny.2 mph84%29.98 "Hg10 mi
7:50 PM82 °FSunny.2 mph70%29.98 "Hg10 mi
7:20 PM82 °FSunny.2 mph70%29.98 "Hg10 mi
6:50 PM84 °FPassing clouds.3 mph66%29.98 "HgN/A
6:20 PM84 °FPassing clouds.3 mph62%29.98 "HgN/A
5:50 PM86 °FPassing clouds.6 mph59%29.98 "HgN/A
5:20 PM86 °FPassing clouds.9 mph59%29.98 "HgN/A
4:50 PM86 °FPassing clouds.6 mph59%29.98 "HgN/A
4:20 PM86 °FPassing clouds.7 mph55%29.98 "HgN/A
3:50 PM86 °FPassing clouds.10 mph55%29.98 "HgN/A
3:20 PM86 °FPassing clouds.10 mph55%30.01 "HgN/A
2:50 PM86 °FPassing clouds.7 mph55%30.01 "HgN/A
2:20 PM84 °FPassing clouds.7 mph58%30.01 "HgN/A
1:50 PM82 °FPassing clouds.6 mph62%30.01 "HgN/A
1:20 PM82 °FPassing clouds.3 mph62%30.01 "HgN/A
12:50 PM81 °FPassing clouds.3 mph66%30.01 "HgN/A
12:20 PM79 °FPassing clouds.6 mph65%30.01 "HgN/A
11:50 AM75 °FPassing clouds.5 mph69%30.01 "HgN/A
11:20 AM75 °FSunny.2 mph69%30.01 "Hg10 mi
10:50 AM73 °FSunny.1 mph74%30.01 "Hg10 mi
10:20 AM70 °FPassing clouds.5 mph78%30.01 "HgN/A
9:50 AM68 °FClear.3 mph83%30.01 "Hg6 mi
9:20 AM66 °FClear.7 mph83%30.01 "Hg6 mi
8:50 AM64 °FClear.8 mph83%30.01 "Hg4 mi
8:20 AM63 °FClear.3 mph88%30.04 "Hg4 mi
7:50 AM61 °FClear.5 mph94%30.04 "Hg4 mi
7:20 AM61 °FClear.6 mph94%30.04 "Hg4 mi
6:50 AM63 °FClear.2 mph88%30.04 "Hg4 mi
6:20 AM63 °FClear.5 mph88%30.01 "Hg6 mi
5:50 AM63 °FPassing clouds.5 mph88%30.01 "HgN/A
5:20 AM63 °FPassing clouds.5 mph88%30.01 "HgN/A
4:50 AM63 °FThundershowers. Passing clouds.3 mph88%30.01 "HgN/A
4:20 AM63 °FClear.2 mph88%30.04 "Hg10 mi
3:50 AM63 °FClear.3 mph88%30.04 "Hg10 mi
3:20 AM63 °FClear.5 mph88%30.04 "Hg10 mi
Weather by CustomWeather, © 2015

See weather overviewHow to use our weather pages